Tracking 29892 objects as of 21-Nov-2024
HD Live streaming from Space Station
objects crossing your sky now

OPS 8464 (TRANSIT 5B-7)

Track OPS 8464 (TRANSIT 5B-7) now!
10-day predictions
OPS 8464 (TRANSIT 5B-7) is classified as:


NORAD ID: 1514
Int'l Code: 1965-065F
Perigee: 1,081.6 km
Apogee: 1,186.8 km
Inclination: 90.0 °
Period: 107.8 minutes
Semi major axis: 7505 km
RCS: 1.5965 m2 (large)
Launch date: August 13, 1965
Source: United States (US)
Launch site: AIR FORCE WESTERN TEST RANGE (AFWTR)
Your satellite tracking list
Your tracking list is empty




NASA's NSSDC Master Catalog

Two Line Element Set (TLE):
1 01514U 65065F   24325.84861622  .00000155  00000-0  28528-3 0  9995
2 01514  89.9609 229.1325 0070122 337.4310  63.8581 13.35240187884758
Source of the keplerian elements: AFSPC